Regional Weather Roundup
Issued by NWS Memphis, TN

Home | Current Version | Previous Version | Text Only | Print | Product List | Glossary On
Versions: 1 2 3 4 5 6 7 8 9 10 11 12 13 14 15 16 17 18 19 20 21 22 23 24 25 26 27 28 29 30 31 32 33 34 35 36 37 38 39 40 41 42 43 44 45 46 47 48 49 50
000
ASUS44 KMEG 060210
RWRMEG
MEMPHIS CWA HOURLY WEATHER ROUNDUP
NATIONAL WEATHER SERVICE MEMPHIS TN
900 PM CDT THU MAY 05 2016

...WEST TENNESSEE...

CITY           SKY/WX    TMP DP  RH WIND       PRES   REMARKS
MEMPHIS INTL   CLEAR     63  42  46 NE12      29.98R
NWS MEMPHIS      N/A     61 N/A N/A MISG        N/A
JACKSON        CLEAR     53  42  66 N6        30.00R
LEXINGTON      CLEAR     48  43  81 CALM      29.98S
DYERSBURG      CLEAR     57  43  58 NE8       30.00R
UNION CITY     CLEAR     52  45  76 CALM      29.99F


...EASTERN ARKANSAS...

CITY           SKY/WX    TMP DP  RH WIND       PRES   REMARKS
JONESBORO      CLEAR     61  45  55 NE14      29.99R
WEST MEMPHIS   CLEAR     61  45  55 NE9       29.97R
BATESVILLE     PTCLDY    61  36  39 N3        29.99R
NEWPORT        CLEAR     62  43  49 NE8       29.99R
WALNUT RIDGE   CLEAR     63  43  48 NE13      29.99R
BLYTHEVILLE    CLEAR     59  44  57 NE12      30.01R
SEARCY         CLEAR     64  36  35 N5        29.99R
STUTTGART      CLEAR     63  46  55 N7        29.97R
PINE BLUFF     CLEAR     63  49  60 N5        29.96R
MONTICELLO     CLEAR     60  51  72 CALM      29.96R


...NORTH MISSISSIPPI...

CITY           SKY/WX    TMP DP  RH WIND       PRES   REMARKS
TUPELO         CLEAR     58  43  57 N10       29.95R
OXFORD         CLEAR     55  41  58 CALM      29.98R
BATESVILLE     FAIR      55  47  75 CALM      29.98R
OLIVE BRANCH   CLEAR     57  43  58 NE9       29.98R
TUNICA         CLEAR     57  43  58 NE7       29.97R
CORINTH        CLEAR     55  43  62 NE9       29.97R
GREENWOOD      CLEAR     56  46  69 CALM      29.95R
COLUMBUS       CLEAR     60  47  63 N7        29.93R
STARKVILLE     FAIR      59  39  47 CALM      29.93S
GOLDEN TRIANGL CLEAR     61  41  48 N7        29.93R


...SOUTHEAST MISSOURI...

CITY           SKY/WX    TMP DP  RH WIND       PRES   REMARKS
KENNETT        FAIR      59  45  58 NE10      30.00R
WEST PLAINS    CLEAR     58  33  39 N5        30.03R
POPLAR BLUFF   CLEAR     57  45  64 NE3       30.01R
CAPE GIRARDEAU CLEAR     52  45  77 CALM      30.01R


...NORTHWEST ALABAMA...

CITY           SKY/WX    TMP DP  RH WIND       PRES   REMARKS
MUSCLE SHOALS  CLEAR     57  39  51 NE7       29.98R


...MIDDLE TENNESSEE...

CITY           SKY/WX    TMP DP  RH WIND       PRES   REMARKS
NASHVILLE      CLOUDY    55  42  61 NW8       29.97R
CLARKSVILLE    CLEAR     52  43  71 NW8       29.98R
COLUMBIA       CLOUDY    54  46  76 N3        29.96R


...WESTERN KENTUCKY...

CITY           SKY/WX    TMP DP  RH WIND       PRES   REMARKS
PADUCAH        CLEAR     50  44  80 W3        29.99S
FORT CAMPBELL  CLEAR     52  44  76 NW5       29.98R


...CENTRAL ARKANSAS...

CITY           SKY/WX    TMP DP  RH WIND       PRES   REMARKS
LITTLE ROCK    CLEAR     67  39  35 NE7       29.97R


SKY/WX REPORTED AS FAIR MEANS FEW OR NO CLOUDS BELOW
12 THOUSAND FEET.





USA.gov is the U.S. government's official web portal to all federal, state and local government web resources and services.